Escatawpa, MS

5:00 PM CDT on August 24, 2016 (GMT -0500)
Lott International

Weather History for KPQL - September, 2013

Change the Weather History Date:

Tuesday, September 24, 2013

  Actual Average Record
Temperature  
Mean Temperature 79 °F -  
Max Temperature 88 °F 85 °F 93 °F (1972)
Min Temperature 71 °F 67 °F 48 °F (1999)
Cooling Degree Days 14    
Growing Degree Days 29 (Base 50)    
Moisture  
Dew Point 75 °F    
Average Humidity 90    
Maximum Humidity 100    
Minimum Humidity 65    
Precipitation  
Precipitation 0.45 in - - ()
Sea Level Pressure  
Sea Level Pressure 29.83 in    
Wind  
Wind Speed 5 mph (East)    
Max Wind Speed 15 mph    
Max Gust Speed 20 mph    
Visibility 9 miles    
Events Rain , Thunderstorm    
Averages and records for this station are not official NWS values.
T = Trace of Precipitation, MM = Missing Value Source: NWS Daily Summary

Daily Weather History Graph

Daily Weather History Graph

Search for Another Location

Airport or City:

Trip Planner

Search our weather history database for the weather conditions in past years. The results will help you decide how hot, cold, wet, or windy it might be!

Date:

Astronomy

Sep. 24, 2013 Rise Set
Actual Time 6:43 AM CDT 6:47 PM CDT
Civil Twilight 6:19 AM CDT 7:11 PM CDT
Nautical Twilight 5:51 AM CDT 7:39 PM CDT
Astronomical Twilight 5:23 AM CDT 8:07 PM CDT
Moon 10:26 PM CDT 11:37 AM CDT
Length of Visible Light 12h 52m
Length of Day
12h 04m
Waning Gibbous, 73% of the Moon is Illuminated
Sep 24
Waning Gibbous
Sep 26
Last Quarter
Oct 4
New
Oct 11
First Quarter
Oct 18
Full

Hourly Weather History & Observations

Time (CDT) Temp. Heat Index Dew Point Humidity Pressure Visibility Wind Dir Wind Speed Gust Speed Precip Events Conditions
12:53 AM 77.0 °F - 75.0 °F 94% 29.87 in 10.0 mi ENE 3.5 mph - N/A   Mostly Cloudy
1:53 AM 75.9 °F - 75.0 °F 97% 29.87 in 8.0 mi Calm Calm - 0.00 in Rain Light Rain
2:40 AM 75.2 °F - 75.2 °F 100% 29.87 in 10.0 mi ENE 3.5 mph - 0.00 in   Mostly Cloudy
2:53 AM 75.9 °F - 75.0 °F 97% 29.87 in 10.0 mi ENE 4.6 mph - 0.00 in   Mostly Cloudy
3:53 AM 75.9 °F - 75.0 °F 97% 29.86 in 10.0 mi Calm Calm - 0.02 in   Scattered Clouds
4:32 AM 75.2 °F - 75.2 °F 100% 29.87 in 8.0 mi SE 4.6 mph - 0.00 in Rain Light Rain
4:53 AM 75.9 °F - 75.0 °F 97% 29.87 in 10.0 mi ESE 6.9 mph - 0.00 in Rain Light Rain
5:53 AM 75.0 °F - 73.9 °F 96% 29.87 in 10.0 mi ESE 3.5 mph - 0.00 in   Mostly Cloudy
6:53 AM 75.9 °F - 75.0 °F 97% 29.88 in 10.0 mi ESE 3.5 mph - N/A   Mostly Cloudy
7:53 AM 77.0 °F - 75.0 °F 94% 29.88 in 10.0 mi Calm Calm - N/A   Scattered Clouds
8:05 AM 78.8 °F - 75.2 °F 89% 29.88 in 10.0 mi Calm Calm - N/A   Mostly Cloudy
8:48 AM 78.8 °F - 75.2 °F 89% 29.89 in 10.0 mi East 4.6 mph - N/A   Mostly Cloudy
8:53 AM 78.1 °F - 75.9 °F 93% 29.89 in 10.0 mi East 4.6 mph - N/A   Mostly Cloudy
8:57 AM 78.8 °F - 75.2 °F 89% 29.88 in 10.0 mi East 5.8 mph - N/A   Mostly Cloudy
9:09 AM 78.8 °F - 75.2 °F 89% 29.88 in 10.0 mi East 4.6 mph - N/A   Mostly Cloudy
9:17 AM 78.8 °F - 75.2 °F 89% 29.88 in 10.0 mi East 4.6 mph - N/A   Mostly Cloudy
9:53 AM 79.0 °F - 77.0 °F 94% 29.88 in 10.0 mi East 5.8 mph - N/A   Overcast
10:44 AM 82.4 °F 90.9 °F 77.0 °F 84% 29.89 in 10.0 mi ESE 11.5 mph - N/A   Overcast
10:53 AM 82.9 °F 91.8 °F 77.0 °F 82% 29.89 in 10.0 mi SE 10.4 mph - N/A   Overcast
11:43 AM 84.2 °F 90.9 °F 73.4 °F 70% 29.86 in 10.0 mi SE 10.4 mph 16.1 mph N/A   Mostly Cloudy
11:53 AM 86.0 °F 95.1 °F 75.0 °F 70% 29.86 in 10.0 mi SSE 9.2 mph - N/A   Scattered Clouds
12:20 PM 84.2 °F 92.3 °F 75.2 °F 74% 29.85 in 10.0 mi SE 11.5 mph - N/A   Mostly Cloudy
12:44 PM 84.2 °F 90.9 °F 73.4 °F 70% 29.84 in 10.0 mi SSE 15.0 mph - N/A   Partly Cloudy
12:53 PM 84.0 °F 91.9 °F 75.0 °F 74% 29.84 in 10.0 mi SSE 11.5 mph 19.6 mph N/A   Scattered Clouds
1:53 PM 84.9 °F 93.3 °F 75.0 °F 72% 29.81 in 10.0 mi SSE 8.1 mph - N/A   Scattered Clouds
2:39 PM 84.2 °F 92.3 °F 75.2 °F 74% 29.79 in 10.0 mi SE 11.5 mph - N/A   Mostly Cloudy
2:53 PM 87.1 °F 95.4 °F 73.9 °F 65% 29.79 in 10.0 mi SE 11.5 mph - N/A   Mostly Cloudy
3:53 PM 82.9 °F 89.4 °F 73.9 °F 74% 29.80 in 10.0 mi SE 6.9 mph - N/A   Overcast
4:36 PM 80.6 °F 86.2 °F 75.2 °F 84% 29.78 in 10.0 mi SE 8.1 mph - 0.00 in Rain , Thunderstorm Light Rain
4:49 PM 80.6 °F 87.1 °F 77.0 °F 89% 29.78 in 10.0 mi SSE 5.8 mph - 0.00 in Thunderstorm Overcast
4:53 PM 80.1 °F 85.8 °F 77.0 °F 90% 29.80 in 10.0 mi Calm Calm - 0.00 in Thunderstorm Overcast
5:10 PM 80.6 °F 87.1 °F 77.0 °F 89% 29.80 in 10.0 mi East 3.5 mph - 0.00 in Rain Light Rain
5:18 PM 80.6 °F 87.1 °F 77.0 °F 89% 29.80 in 10.0 mi SE 3.5 mph - 0.00 in Rain , Thunderstorm Light Thunderstorms and Rain
5:41 PM 78.8 °F - 78.8 °F 100% 29.81 in 3.0 mi Calm Calm - 0.11 in Rain , Thunderstorm Thunderstorms and Rain
5:47 PM 80.6 °F 88.1 °F 78.8 °F 94% 29.81 in 1.2 mi Calm Calm - 0.15 in Rain , Thunderstorm Heavy Thunderstorms and Rain
5:53 PM 79.0 °F - 78.1 °F 97% 29.81 in 1.0 mi Calm Calm - 0.18 in Rain , Thunderstorm Heavy Thunderstorms and Rain
6:00 PM 78.8 °F - 78.8 °F 100% 29.81 in 0.8 mi Calm Calm - 0.16 in Rain , Thunderstorm Heavy Thunderstorms and Rain
6:09 PM 78.8 °F - 78.8 °F 100% 29.81 in 1.2 mi Calm Calm - 0.21 in Rain , Thunderstorm Thunderstorms and Rain
6:17 PM 78.8 °F - 78.8 °F 100% 29.81 in 1.8 mi NNE 5.8 mph - 0.25 in Rain , Thunderstorm Heavy Thunderstorms and Rain
6:22 PM 78.8 °F - 78.8 °F 100% 29.80 in 3.0 mi North 8.1 mph - 0.25 in Rain , Thunderstorm Light Thunderstorms and Rain
6:30 PM 78.8 °F - 77.0 °F 94% 29.80 in 9.0 mi NNE 5.8 mph - 0.25 in Rain , Thunderstorm Light Thunderstorms and Rain
6:39 PM 78.8 °F - 77.0 °F 94% 29.79 in 10.0 mi North 5.8 mph - 0.25 in Thunderstorm Thunderstorm
6:53 PM 78.1 °F - 75.9 °F 93% 29.80 in 10.0 mi Calm Calm - 0.25 in Thunderstorm Overcast
6:56 PM 78.8 °F - 75.2 °F 89% 29.79 in 10.0 mi Calm Calm - N/A Thunderstorm Overcast
7:09 PM 78.8 °F - 75.2 °F 89% 29.78 in 10.0 mi NNE 4.6 mph - N/A Thunderstorm Overcast
7:17 PM 77.0 °F - 75.2 °F 94% 29.78 in 10.0 mi North 4.6 mph - 0.00 in Rain Light Rain
7:50 PM 77.0 °F - 75.2 °F 94% 29.79 in 10.0 mi NE 5.8 mph - 0.00 in Thunderstorm Mostly Cloudy
7:53 PM 77.0 °F - 75.9 °F 96% 29.79 in 10.0 mi NE 6.9 mph - 0.00 in Thunderstorm Mostly Cloudy
8:01 PM 77.0 °F - 75.2 °F 94% 29.79 in 10.0 mi NE 10.4 mph - N/A Thunderstorm Overcast
8:10 PM 75.2 °F - 73.4 °F 94% 29.80 in 10.0 mi ENE 8.1 mph - N/A   Overcast
8:27 PM 73.4 °F - 71.6 °F 94% 29.80 in 10.0 mi East 9.2 mph - N/A   Overcast
8:53 PM 73.0 °F - 72.0 °F 96% 29.81 in 10.0 mi East 5.8 mph - N/A   Scattered Clouds
9:01 PM 73.4 °F - 71.6 °F 94% 29.80 in 10.0 mi East 9.2 mph - N/A   Scattered Clouds
9:20 PM 73.4 °F - 71.6 °F 94% 29.80 in 10.0 mi ESE 8.1 mph - N/A   Mostly Cloudy
9:51 PM 71.6 °F - 71.6 °F 100% 29.79 in 10.0 mi ESE 4.6 mph - N/A   Partly Cloudy
9:53 PM 72.0 °F - 71.1 °F 97% 29.80 in 10.0 mi ESE 3.5 mph - N/A   Scattered Clouds
10:53 PM 72.0 °F - 71.1 °F 97% 29.79 in 10.0 mi Calm Calm - N/A   Clear
11:27 PM 71.6 °F - 71.6 °F 100% 29.79 in 10.0 mi NNW 4.6 mph - N/A   Mostly Cloudy
11:53 PM 73.0 °F - 71.1 °F 93% 29.79 in 10.0 mi North 4.6 mph - N/A   Overcast